Skip Page Navigation
NASA JPL Caltech
NASA Logo - Jet Propulsion Laboratory + View the NASA Portal
+ Center for Near-Earth Object Studies
JPL Home Earth Solar System Stars & Galaxies Technology
JPL Solar System Dynamics
BODIES ORBITS EPHEMERIDES TOOLS PHYSICAL DATA DISCOVERY FAQ SITE MAP
JPL Small-Body Database Browser
Search: [ help ]  
160909 (2001 UD217)
Classification: Main-belt Asteroid          SPK-ID: 2160909
Ephemeris | Orbit Diagram | Orbital Elements | Mission Design | Physical Parameters | Discovery Circumstances | Close-Approach Data ]

[ show orbit diagram ]
Orbital Elements at Epoch 2459000.5 (2020-May-31.0) TDB
Reference: JPL 14 (heliocentric ecliptic J2000)
 Element Value Uncertainty (1-sigma)   Units 
e .0361202875102304 5.2549e-08  
a 2.793596248988215 2.7153e-08 au
q 2.692690749287259 1.4552e-07 au
i 6.891287804185923 5.6335e-06 deg
node 55.95753025731643 5.0684e-05 deg
peri 218.1090019806544 9.8368e-05 deg
M 111.172076416539 8.3554e-05 deg
tp 2458473.831793843641
(2018-Dec-21.33179384)
0.00039652 TDB
period 1705.469217880712
4.67
2.4865e-05
6.808e-08
d
yr
n .2110856040235961 3.0775e-09 deg/d
Q 2.894501748689171 2.8134e-08 au
  Orbit Determination Parameters
   # obs. used (total)      189  
   data-arc span      6577 days (18.01 yr)  
   first obs. used      2001-10-24  
   last obs. used      2019-10-27  
   planetary ephem.      DE431  
   SB-pert. ephem.      SB431-N16  
   condition code      0  
   norm. resid. RMS      .59008  
   source      ORB  
   producer      Otto Matic  
   solution date      2019-Nov-07 18:43:17  

Additional Information
 Earth MOID = 1.68049 au 
 Jupiter MOID = 2.12978 au 
 T_jup = 3.317 
[ hide covariance matrix ]
Orbital Elements at Epoch 2457084.5 (2015-Mar-03.0) TDB
Reference: JPL 14 (heliocentric ecliptic J2000)
 Element Value Uncertainty (1-sigma)   Units 
e .03732527936930475 5.2346e-08  
q 2.690252460034513 1.4563e-07 au
tp 2456780.839247000091
(2014-May-03.33924700)
0.00038812 TDB
node 55.98074868802657 5.0696e-05 deg
peri 220.9424438141079 9.6239e-05 deg
i 6.891281637906154 5.6314e-06 deg
  Orbit Determination Parameters
   # obs. used (total)      189  
   data-arc span      6577 days (18.01 yr)  
   first obs. used      2001-10-24  
   last obs. used      2019-10-27  
   planetary ephem.      DE431  
   SB-pert. ephem.      SB431-N16  
   condition code      0  
   norm. resid. RMS      .59008  
   source      ORB  
   producer      Otto Matic  
   solution date      2019-Nov-07 18:43:17  

Additional Information
 Jupiter MOID = 2.12978 au 
 T_jup = 3.317 
Orbit Covariance (6×6)
  e q tp node peri i
e 2.740131124592685E-15 -7.499307997083221E-15 1.606757252101967E-12 9.585365772852988E-15 2.942992398448954E-13 -1.375727873556968E-16
q -7.499307997083221E-15 2.120821786445907E-14 -6.319661703363357E-12 -2.49371781383993E-14 -1.194759422234236E-12 1.302913300778209E-15
tp 1.606757252101967E-12 -6.319661703363357E-12 1.506358827721327E-7 -8.872740827128133E-12 3.179422902840257E-8 -4.536075951319323E-12
node 9.585365772852988E-15 -2.49371781383993E-14 -8.872740827128133E-12 2.570103149165597E-9 -2.553166226663141E-9 5.909848544509605E-13
peri 2.942992398448954E-13 -1.194759422234236E-12 3.179422902840257E-8 -2.553166226663141E-9 9.261900837265119E-9 -1.524739209117711E-12
i -1.375727873556968E-16 1.302913300778209E-15 -4.536075951319323E-12 5.909848544509605E-13 -1.524739209117711E-12 3.17128115271108E-11

Ephemeris | Orbit Diagram | Orbital Elements | Mission Design | Physical Parameters | Discovery Circumstances | Close-Approach Data ]

Physical Parameter Table
Parameter Symbol Value Units Sigma Reference Notes
absolute magnitude H 16.3   n/a MPO449863  

160909 (2001 UD217)          Discovered 2001-Oct-24 by LINEAR at Socorro
Reference: 20070828/Numbers.arcLast Updated: 2007-08-30

[ show close-approach data ]
Alternate Designations
 2001 UD217 = 2004 JZ52 
Ephemeris | Orbit Diagram | Orbital Elements | Mission Design | Physical Parameters | Discovery Circumstances | Close-Approach Data ]
ABOUT SSD CREDITS/AWARDS PRIVACY/COPYRIGHT GLOSSARY LINKS
FirstGov 2020-Jul-09 12:34 UT
(server date/time)  
NASA Home Page
Site Manager:   Ryan S. Park
Webmaster  Alan B. Chamberlin